Weather History for KTVL - April, 2013

Change the Weather History Date:

Wednesday, April 17, 2013

  Actual Average Record
Temperature  
Mean Temperature 33 °F 40 °F  
Max Temperature 44 °F 54 °F 71 °F (1994)
Min Temperature 21 °F 27 °F 4 °F (1975)
Degree Days  
Heating Degree Days 32 24  
Month to date heating degree days 391 442  
Since 1 July heating degree days 6173 6594  
Cooling Degree Days 0 0  
Month to date cooling degree days 0 0  
Year to date cooling degree days 0 0  
Moisture  
Dew Point 14 °F    
Average Humidity 50    
Maximum Humidity 77    
Minimum Humidity 22    
Precipitation  
Precipitation T in - 0.29 in (1953)
Month to date precipitation 0.70  
Year to date precipitation 2.94  
Sea Level Pressure  
Sea Level Pressure 30.20 in    
Wind  
Wind Speed 6 mph (NNE)    
Max Wind Speed 20 mph    
Max Gust Speed 26 mph    
Visibility 9 miles    
Events Snow    
T = Trace of Precipitation, MM = Missing Value Source: NWS Daily Summary

Daily Weather History Graph

Daily Weather History Graph

Search for Another Location

Airport or City:

Trip Planner

Search our weather history database for the weather conditions in past years. The results will help you decide how hot, cold, wet, or windy it might be!

Date:

Astronomy

Apr. 17, 2013 Rise Set
Actual Time 6:20 AM PDT 7:39 PM PDT
Civil Twilight 5:52 AM PDT 8:07 PM PDT
Nautical Twilight 5:19 AM PDT 8:40 PM PDT
Astronomical Twilight 4:44 AM PDT 9:15 PM PDT
Moon 11:39 AM PDT (4/17) 1:19 AM PDT (4/17)
Length of Visible Light 14h 14m
Length of Day
13h 19m
Waxing Crescent, 43% of the Moon is Illuminated
Apr 17
Waxing Crescent
Apr 18
First Quarter
Apr 25
Full
May 2
Last Quarter
May 9
New

Hourly Weather History & Observations

Time (PDT) Temp. Windchill Dew Point Humidity Pressure Visibility Wind Dir Wind Speed Gust Speed Precip Events Conditions
12:21 AM 28.4 °F 21.2 °F 19.4 °F 69% 30.11 in 2.5 mi North 6.9 mph - 0.00 in Snow Light Snow
12:37 AM 28.4 °F 23.3 °F 19.4 °F 69% 30.12 in 5.0 mi Variable 4.6 mph - 0.00 in Snow Light Snow
12:49 AM 28.4 °F 18.5 °F 19.4 °F 69% 30.12 in 5.0 mi NNE 11.5 mph 16.1 mph 0.00 in Snow Light Snow
12:53 AM 28.0 °F 20.0 °F 19.0 °F 69% 30.15 in 4.0 mi North 8.1 mph - 0.00 in Snow Light Snow
1:00 AM 28.4 °F 19.7 °F 19.4 °F 69% 30.12 in 8.0 mi North 9.2 mph - 0.00 in Snow Light Snow
1:18 AM 28.4 °F 22.2 °F 17.6 °F 64% 30.12 in 10.0 mi North 5.8 mph - 0.00 in   Overcast
1:34 AM 26.6 °F 22.6 °F 17.6 °F 69% 30.12 in 10.0 mi Variable 3.5 mph - 0.00 in   Scattered Clouds
1:53 AM 26.1 °F - 18.0 °F 71% 30.13 in 10.0 mi Calm Calm - 0.00 in   Clear
2:53 AM 27.0 °F 18.7 °F 15.1 °F 61% 30.14 in 10.0 mi NNE 8.1 mph - N/A   Clear
3:53 AM 24.1 °F - 16.0 °F 71% 30.15 in 10.0 mi Calm Calm - N/A   Clear
4:53 AM 21.9 °F - 15.1 °F 75% 30.16 in 10.0 mi Calm Calm - N/A   Clear
5:53 AM 21.9 °F - 12.0 °F 66% 30.17 in 10.0 mi Calm Calm - N/A   Clear
7:53 AM 28.0 °F 20.0 °F 9.0 °F 45% 30.18 in 10.0 mi ENE 8.1 mph - N/A   Clear
8:53 AM 30.0 °F 21.7 °F 10.9 °F 45% 30.19 in 10.0 mi NE 9.2 mph - N/A   Clear
9:53 AM 30.9 °F 22.8 °F 12.9 °F 47% 30.21 in 10.0 mi ENE 9.2 mph 18.4 mph N/A   Clear
10:53 AM 33.1 °F 25.5 °F 12.0 °F 42% 30.23 in 10.0 mi NE 9.2 mph - N/A   Clear
11:53 AM 35.1 °F 28.6 °F 12.0 °F 39% 30.23 in 10.0 mi ENE 8.1 mph - N/A   Clear
12:53 PM 37.9 °F 32.1 °F 14.0 °F 38% 30.22 in 10.0 mi NNE 8.1 mph - N/A   Clear
1:53 PM 39.9 °F 32.9 °F 12.0 °F 32% 30.22 in 10.0 mi NNE 11.5 mph 21.9 mph N/A   Clear
2:53 PM 42.1 °F 34.9 °F 12.0 °F 29% 30.21 in 10.0 mi North 13.8 mph 21.9 mph N/A   Clear
3:53 PM 43.0 °F 37.2 °F 10.0 °F 26% 30.21 in 10.0 mi NNE 10.4 mph 19.6 mph N/A   Clear
4:53 PM 44.1 °F 39.0 °F 9.0 °F 24% 30.22 in 10.0 mi NNE 9.2 mph 17.3 mph N/A   Clear
5:53 PM 42.1 °F 36.6 °F 9.0 °F 26% 30.24 in 10.0 mi North 9.2 mph 16.1 mph N/A   Clear
6:53 PM 39.0 °F 32.8 °F 9.0 °F 29% 30.26 in 10.0 mi North 9.2 mph - N/A   Clear
7:53 PM 36.0 °F 32.1 °F 10.0 °F 34% 30.27 in 10.0 mi NNE 4.6 mph - N/A   Clear
8:53 PM 33.1 °F 30.0 °F 12.0 °F 42% 30.29 in 10.0 mi Variable 3.5 mph - N/A   Clear
9:53 PM 30.9 °F - 14.0 °F 50% 30.31 in 10.0 mi Calm Calm - N/A   Clear
10:53 PM 28.9 °F - 15.1 °F 56% 30.31 in 10.0 mi Calm Calm - N/A   Clear
11:53 PM 28.9 °F - 15.1 °F 56% 30.30 in 10.0 mi Calm Calm - N/A   Clear